Location: Aldenham
(51.6667°N, 0.3500°W)
Time: 20:27:28
(UTC+00:00)

A-11 Canister half - Visible Passes

Search period start: 17 February 2026 00:00
Search period end: 27 February 2026 00:00
Orbit: 1525 x 1682 km, 47.3° (Epoch: 17 February)

Date Brightness Start Highest point End Pass type
(mag) Time Alt. Az. Time Alt. Az. Time Alt. Az.
17 Feb 9.0 19:31:12 10° W 19:40:24 69° S 19:44:42 36° ESE visible
17 Feb 9.5 21:35:50 10° W 21:43:00 46° SW 21:43:00 46° SW visible
18 Feb 9.0 19:09:22 10° W 19:18:35 69° S 19:24:07 28° ESE visible
18 Feb 9.3 21:14:00 10° W 21:22:24 52° SW 21:22:24 52° SW visible
18 Feb 10.9 23:19:27 10° W 23:20:41 13° W 23:20:41 13° W visible
19 Feb 9.1 18:47:33 10° W 18:56:46 69° S 19:03:32 21° ESE visible
19 Feb 9.1 20:52:11 10° W 21:01:06 53° SSW 21:01:49 52° S visible
19 Feb 10.7 22:57:32 10° W 23:00:06 17° W 23:00:06 17° W visible
20 Feb 9.1 18:25:44 10° WSW 18:34:58 69° S 18:42:58 15° E visible
20 Feb 9.2 20:30:22 10° W 20:39:18 55° SSW 20:41:15 48° SSE visible
20 Feb 10.5 22:35:38 10° W 22:39:33 21° WSW 22:39:33 21° WSW visible
21 Feb 9.2 18:03:54 10° WSW 18:13:09 69° S 18:22:22 10° E visible
21 Feb 9.2 20:08:32 10° W 20:17:30 56° SSW 20:20:43 40° SSE visible
21 Feb 10.3 22:13:44 10° W 22:19:01 25° WSW 22:19:01 25° WSW visible
22 Feb 9.2 19:46:42 10° W 19:55:43 57° SSW 20:00:12 32° SE visible
22 Feb 10.1 21:51:51 10° W 21:58:30 28° SW 21:58:30 28° SW visible
23 Feb 9.3 19:24:53 10° W 19:33:55 58° SSW 19:39:43 24° SE visible
23 Feb 10.0 21:29:58 10° W 21:37:33 29° SW 21:38:01 29° SW visible
24 Feb 9.3 19:03:03 10° W 19:12:08 59° SSW 19:19:17 18° SE visible
24 Feb 10.0 21:08:05 10° W 21:15:49 31° SW 21:17:34 29° SSW visible
25 Feb 9.3 18:41:14 10° W 18:50:20 60° SSW 18:58:53 12° ESE visible
25 Feb 10.0 20:46:13 10° W 20:54:03 32° SW 20:57:11 26° S visible
26 Feb 9.4 18:19:23 10° W 18:28:31 61° SSW 18:37:37 10° ESE visible
26 Feb 10.0 20:24:21 10° W 20:32:18 33° SW 20:36:51 22° S visible
